1497067200.91,2450,19.5,74088.3,3.87,-22.63,-22.17,0,*41
1497067202.13,2451,19.5,74088.5,3.87,-22.57,-22.07,0,*46
1497067203.32,2452,19.5,74090.8,3.89,-22.41,-22.11,0,*4B
1497067204.57,2453,19.5,74090.0,3.87,-22.17,-22.11,0,*47
1497067205.76,2454,19.5,74092.5,3.89,-22.07,-22.07,0,*48
1497067206.96,2455,19.5,74090.0,3.87,-22.07,-22.27,0,*45
1497067208.15,2456,19.5,74090.0,3.89,-22.11,-22.41,0,*4F
1497067209.37,2457,19.5,74090.0,3.89,-21.97,-22.27,0,*43
1497067210.61,2458,19.5,74092.3,3.87,-21.67,-22.07,0,*4F
1497067211.85,2459,19.5,74088.0,3.87,-21.39,-21.97,0,*4F
1497067213.07,2460,19.5,74090.3,3.89,-21.03,-22.07,0,*48
1497067214.33,2461,19.5,74090.8,3.87,-20.99,-21.97,0,*4F
1497067215.53,2462,19.5,74088.5,3.89,-20.43,-21.77,0,*4B
1497067216.72,2463,19.5,74094.0,3.89,-20.05,-21.39,0,*42
1497067217.94,2464,19.5,74094.5,3.87,-19.47,-21.17,0,*4B
1497067219.16,2465,19.5,74090.8,3.89,-18.99,-20.83,0,*4A
1497067220.38,2466,19.5,74090.8,3.87,-18.25,-20.29,0,*40
1497067221.6,2467,19.5,74090.0,3.89,-17.69,-19.81,0,*40
1497067222.82,2468,19.5,74090.8,3.89,-17.25,-19.37,0,*4A
1497067224.01,2469,19.5,74088.8,3.89,-16.79,-19.03,0,*44
1497067225.23,2470,19.5,74092.8,3.89,-16.13,-18.41,0,*47
1497067226.45,2471,19.5,74092.0,3.87,-15.75,-18.11,0,*4E
1497067227.65,2472,19.5,74090.3,3.89,-15.49,-17.83,0,*48
1497067228.85,2473,19.5,74088.8,3.89,-15.11,-17.35,0,*49
1497067230.04,2474,19.5,74090.8,3.89,-14.69,-16.75,0,*45
1497067231.29,2475,19.5,74088.3,3.95,-14.19,-15.89,0,*4E
1497067232.48,2476,19.5,74092.5,3.93,-13.55,-15.11,0,*45
1497067233.69,2477,19.5,74090.0,3.95,-12.93,-14.29,0,*43
1497067234.91,2478,19.5,74090.8,3.93,-12.35,-13.65,0,*49
1497067236.11,2479,19.5,74088.3,3.95,-12.03,-13.07,0,*4F
1497067237.38,2480,19.5,74088.8,3.95,-11.89,-12.65,0,*4D
1497067238.64,2481,19.5,74088.3,3.95,-11.77,-12.07,0,*49
1497067239.91,2482,19.5,74090.3,3.95,-11.59,-11.59,0,*4E
1497067241.19,2483,19.5,74090.5,3.97,-11.59,-11.07,0,*46
1497067242.38,2484,19.5,74088.8,3.99,-11.19,-10.49,0,*40
1497067243.58,2485,19.5,74088.8,3.99,-11.15,-10.05,0,*45
1497067244.8,2486,19.5,74090.8,3.99,-11.07,-9.67,0,*79
1497067246.07,2487,19.5,74092.8,4.01,-10.79,-9.11,0,*77
1497067247.31,2488,19.5,74092.8,4.01,-10.67,-8.71,0,*70
1497067248.49,2489,19.5,74090.0,4.03,-10.53,-8.41,0,*77
1497067249.71,2490,19.5,74094.3,4.03,-10.31,-8.11,0,*7E
1497067250.9,2491,19.5,74094.3,4.03,-10.19,-7.83,0,*71
1497067252.14,2492,19.5,74090.8,4.05,-9.97,-7.43,0,*46
1497067253.36,2493,19.5,74092.0,4.07,-9.83,-7.31,0,*45
1497067254.55,2494,19.5,74092.5,4.07,-9.71,-7.19,0,*45
1497067255.81,2495,19.5,74090.0,4.09,-9.49,-6.93,0,*42
1497067257.0,2496,19.5,74092.3,4.11,-9.23,-6.69,0,*41
1497067258.19,2497,19.56,74094.5,4.11,-9.01,-6.43,0,*48
1497067259.38,2498,19.5,74094.0,4.11,-8.97,-6.31,0,*4C
1497067260.61,2499,19.5,74094.3,4.13,-8.81,-6.09,0,*43
1497067261.84,2500,19.5,74090.8,4.13,-8.67,-5.81,0,*49
1497067263.05,2501,19.5,74088.0,4.13,-8.41,-5.51,0,*41
1497067264.26,2502,19.5,74088.3,4.21,-8.33,-5.39,0,*48
1497067265.49,2503,19.5,74090.8,4.21,-8.33,-5.15,0,*47
1497067266.73,2504,19.5,74090.0,4.21,-8.41,-5.03,0,*42
1497067267.94,2505,19.5,74092.5,4.23,-8.45,-4.89,0,*46
1497067269.15,2506,19.5,74090.0,4.23,-8.45,-4.73,0,*40
1497067270.33,2507,19.5,74094.0,4.23,-8.21,-4.53,0,*41
1497067271.56,2508,19.5,74090.8,4.25,-7.91,-4.21,0,*49
1497067272.79,2509,19.5,74090.8,4.25,-7.43,-4.05,0,*41
1497067273.99,2510,19.5,74088.8,4.27,-7.11,-3.71,0,*48
1497067275.2,2511,19.5,74092.8,4.29,-6.63,-3.39,0,*4F
1497067276.38,2512,19.5,74094.5,4.29,-6.05,-3.07,0,*41
1497067277.62,2513,19.5,74090.0,4.29,-5.61,-2.75,0,*45
1497067278.82,2514,19.5,74090.0,4.33,-4.85,-2.35,0,*46
1497067280.04,2515,19.5,74088.8,4.33,-4.13,-1.99,0,*4D
1497067281.27,2516,19.5,74094.5,4.35,-3.31,-1.39,0,*45
1497067282.53,2517,19.5,74088.8,4.35,-2.67,-1.05,0,*49
1497067283.73,2518,19.5,74092.0,4.39,-2.19,-0.57,0,*75
1497067284.95,2519,19.5,74090.0,4.39,-1.75,-0.23,0,*7E
1497067286.15,2520,19.5,74094.0,4.41,-1.47,0.01,0,*67
1497067287.37,2521,19.5,74090.5,4.43,-1.25,0.29,0,*5A
1497067288.58,2522,19.5,74094.0,4.45,-0.93,0.51,0,*6C
1497067289.77,2523,19.5,74090.5,4.45,-0.61,0.79,0,*6A
1497067290.96,2524,19.5,74090.8,4.47,-0.29,1.05,0,*59
1497067292.19,2525,19.5,74088.5,4.51,0.13,1.43,0,*79
1497067293.42,2526,19.5,74090.8,4.51,0.47,1.67,0,*7D
1497067294.61,2527,19.5,74090.8,4.53,0.75,1.79,0,*70
1497067295.85,2528,19.5,74094.0,4.55,0.87,1.93,0,*70
1497067297.05,2529,19.5,74094.0,4.57,1.05,2.13,0,*43
1497067298.25,2530,19.5,74088.3,4.57,1.05,2.25,0,*4E
1497067299.47,2531,19.5,74094.8,4.61,0.95,2.09,0,*7C
1497067300.68,2532,19.5,74092.3,4.65,0.95,2.13,0,*70
1497067301.88,2533,19.5,74090.3,4.65,0.97,2.13,0,*73
1497067303.07,2534,19.5,74090.8,4.65,0.97,2.05,0,*73
1497067304.33,2535,19.5,74090.3,4.67,1.13,2.13,0,*4A
1497067305.53,2536,19.5,74092.5,4.69,1.17,2.31,0,*43
1497067306.76,2537,19.5,74090.3,4.73,1.33,2.39,0,*47
1497067307.95,2538,19.5,74092.3,4.73,1.41,2.47,0,*44
1497067309.21,2539,19.5,74090.0,4.75,1.29,2.51,0,*4A
1497067310.48,2540,19.5,74088.3,4.75,1.21,2.51,0,*4C
1497067311.67,2541,19.5,74092.3,4.77,0.97,2.39,0,*7D
1497067312.86,2542,19.5,74094.0,4.77,0.75,2.31,0,*7A
1497067314.11,2543,19.5,74094.8,4.79,0.91,2.47,0,*7E
1497067315.31,2544,19.5,74092.8,4.79,0.67,2.31,0,*71
1497067316.56,2545,19.5,74088.5,4.79,0.51,2.13,0,*75
1497067317.76,2546,19.5,74094.3,4.81,0.25,2.21,0,*73
1497067318.99,2547,19.5,74094.0,4.79,-0.11,2.01,0,*5D
1497067320.16,2548,19.5,74090.0,4.81,-0.69,1.75,0,*5A
1497067321.36,2549,19.5,74092.0,4.81,-0.97,1.75,0,*5A
1497067322.61,2550,19.5,74094.3,4.87,-1.43,1.67,0,*6F
1497067323.81,2551,19.5,74092.5,4.87,-1.63,1.41,0,*68
1497067325.03,2552,19.5,74094.5,4.87,-1.55,1.33,0,*6B
1497067326.26,2553,19.5,74092.3,4.87,-1.75,1.33,0,*68
1497067327.46,2554,19.5,74092.5,4.89,-1.99,1.05,0,*66
1497067328.62,2555,19.5,74090.5,4.89,-2.35,0.97,0,*58
1497067329.82,2556,19.5,74088.5,4.89,-3.11,0.59,0,*5E
1497067331.04,2557,19.5,74092.3,4.91,-3.43,0.43,0,*5A
1497067332.26,2558,19.5,74094.8,4.89,-3.47,0.41,0,*5A
1497067333.43,2559,19.5,74092.0,4.89,-3.23,0.43,0,*5B
1497067334.68,2560,19.5,74090.0,4.91,-3.59,0.29,0,*59
1497067335.89,2561,19.5,74092.3,4.91,-4.25,-0.11,0,*72
1497067337.1,2562,19.5,74090.0,4.93,-5.43,-0.73,0,*76
1497067338.33,2563,19.5,74092.5,4.93,-7.27,-1.55,0,*42
1497067339.56,2564,19.5,74090.0,4.93,-8.59,-1.95,0,*4F
1497067340.81,2565,19.5,74090.8,4.93,-8.85,-1.91,0,*4B
1497067342.0,2566,19.5,74090.5,4.95,-9.23,-2.31,0,*4A
1497067343.24,2567,19.5,74088.5,4.93,-10.05,-2.71,0,*75
1497067344.44,2568,19.5,74092.3,4.95,-10.49,-2.95,0,*7E
1497067345.63,2569,19.5,74090.8,4.95,-11.15,-3.39,0,*70
1497067346.85,2570,19.5,74090.0,4.95,-11.85,-3.95,0,*77
1497067348.09,2571,19.5,74092.8,4.93,-12.61,-4.61,0,*75
1497067349.32,2572,19.5,74094.8,4.95,-13.11,-5.07,0,*77
1497067350.56,2573,19.5,74092.5,4.97,-14.11,-5.85,0,*79
1497067351.77,2574,19.5,74092.8,4.97,-14.69,-6.51,0,*7B
1497067353.01,2575,19.5,74092.3,4.95,-14.79,-6.97,0,*73
1497067354.23,2576,19.5,74094.0,4.95,-14.89,-7.43,0,*77
1497067355.48,2577,19.5,74092.5,4.95,-14.55,-7.61,0,*77
1497067356.72,2578,19.5,74092.5,4.95,-14.79,-8.03,0,*7D
1497067357.96,2579,19.5,74092.5,4.95,-14.79,-8.51,0,*7B
1497067359.14,2580,19.5,74094.8,4.95,-15.11,-9.31,0,*75
1497067360.37,2581,19.5,74088.8,4.95,-16.89,-10.75,0,*4E
1497067361.6,2582,19.5,74088.3,4.95,-17.83,-11.85,0,*48
1497067362.82,2583,19.5,74094.8,4.95,-18.21,-12.79,0,*4E
1497067364.02,2584,19.5,74094.8,4.95,-17.73,-13.51,0,*4A
1497067365.3,2585,19.5,74090.5,4.93,-17.25,-13.97,0,*44
1497067366.55,2586,19.5,74094.3,4.93,-17.49,-14.83,0,*4F
1497067367.78,2587,19.5,74090.5,4.95,-18.25,-15.85,0,*4A
1497067369.05,2588,19.5,74090.5,4.93,-18.93,-16.31,0,*42
1497067370.28,2589,19.5,74094.8,4.95,-20.63,-17.21,0,*41
1497067371.51,2590,19.5,74092.3,4.93,-20.89,-17.69,0,*47
1497067372.78,2591,19.5,74090.8,4.93,-21.87,-19.31,0,*4A
1497067374.04,2592,19.5,74092.3,4.93,-21.53,-19.37,0,*46
1497067375.28,2593,19.5,74094.0,4.91,-20.79,-19.17,0,*4E
1497067376.56,2594,19.5,74092.5,4.93,-21.33,-19.61,0,*45
1497067377.82,2595,19.5,74092.0,4.91,-22.31,-19.81,0,*49
1497067379.04,2596,19.5,74090.0,4.91,-22.41,-19.95,0,*48
1497067380.25,2597,19.5,74094.3,4.89,-22.97,-20.15,0,*49
1497067381.5,2598,19.5,74092.3,4.87,-22.87,-20.35,0,*4B
1497067382.77,2599,19.5,74090.3,4.87,-23.03,-20.83,0,*4A
1497067383.99,2600,19.5,74094.0,4.85,-23.09,-21.03,0,*48
1497067385.21,2601,19.5,74092.5,4.85,-23.53,-21.43,0,*42
1497067386.4,2602,19.5,74090.8,4.85,-23.09,-21.43,0,*4E
1497067387.65,2603,19.5,74092.3,4.81,-22.31,-20.83,0,*4C
1497067388.87,2604,19.5,74090.8,4.79,-22.41,-20.29,0,*4B
1497067390.1,2605,19.5,74090.0,4.79,-23.09,-20.59,0,*40
1497067391.32,2606,19.5,74090.8,4.81,-23.23,-20.73,0,*44
1497067392.55,2607,19.5,74092.8,4.79,-23.39,-20.89,0,*4C
1497067393.8,2608,19.5,74090.5,4.79,-23.59,-21.03,0,*46
1497067395.02,2609,19.5,74092.0,4.77,-23.49,-21.09,0,*42
1497067396.24,2610,19.5,74092.5,4.77,-23.65,-21.39,0,*47
1497067397.48,2611,19.5,74088.0,4.75,-22.83,-20.83,0,*4D
1497067398.76,2612,19.5,74090.0,4.75,-23.33,-20.99,0,*4F
1497067400.01,2613,19.5,74090.8,4.75,-23.49,-20.93,0,*49
1497067401.24,2614,19.5,74092.5,4.75,-23.39,-20.79,0,*4D
1497067402.52,2615,19.5,74090.0,4.75,-23.33,-20.53,0,*4E
1497067403.77,2616,19.5,74092.0,4.73,-23.19,-20.19,0,*4D
1497067405.01,2617,19.5,74092.0,4.75,-22.97,-19.85,0,*42
1497067406.25,2618,19.5,74092.8,4.75,-22.87,-19.85,0,*4C
1497067407.49,2619,19.5,74090.5,4.73,-23.69,-20.35,0,*4B
1497067408.74,2620,19.5,74088.3,4.73,-23.19,-19.61,0,*4D
1497067409.95,2621,19.5,74090.0,4.73,-21.97,-18.83,0,*45
1497067411.14,2622,19.5,74092.8,4.73,-22.11,-19.13,0,*43
1497067412.34,2623,19.5,74092.3,4.73,-22.53,-19.47,0,*45
1497067413.56,2624,19.5,74094.5,4.73,-22.97,-19.61,0,*4E
1497067414.78,2625,19.5,74092.3,4.73,-22.67,-19.27,0,*42
1497067416.05,2626,19.5,74090.0,4.67,-21.27,-17.55,0,*48
1497067417.26,2627,19.56,74094.8,4.69,-20.15,-16.93,0,*4C
1497067418.5,2628,19.5,74090.0,4.67,-20.79,-17.69,0,*43
1497067419.72,2629,19.5,74092.5,4.67,-22.03,-18.49,0,*40
1497067420.93,2630,19.5,74094.0,4.67,-22.63,-18.49,0,*4E
1497067422.12,2631,19.5,74088.8,4.65,-22.83,-18.41,0,*4B
1497067423.3,2632,19.5,74094.3,4.65,-22.87,-18.25,0,*4E
1497067424.52,2633,19.5,74090.0,4.63,-22.83,-18.17,0,*4C
1497067425.76,2634,19.5,74090.5,4.63,-22.21,-17.49,0,*47
1497067426.98,2635,19.5,74090.5,4.63,-21.63,-16.97,0,*41
1497067428.23,2636,19.5,74090.0,4.63,-21.93,-17.11,0,*42
1497067429.43,2637,19.5,74092.0,4.65,-22.27,-17.35,0,*4F
1497067430.62,2638,19.5,74088.8,4.65,-22.11,-17.35,0,*45
1497067431.87,2639,19.5,74090.5,4.63,-20.83,-16.41,0,*49
1497067433.09,2640,19.5,74090.0,4.63,-19.07,-15.07,0,*40
1497067434.34,2641,19.5,74092.0,4.63,-16.55,-13.37,0,*4C
1497067435.61,2642,19.5,74088.0,4.63,-14.93,-12.57,0,*40
1497067436.85,2643,19.5,74094.5,4.63,-14.65,-12.79,0,*44
1497067438.12,2644,19.56,74094.8,4.63,-14.93,-12.79,0,*4A
1497067439.34,2645,19.5,74090.5,4.63,-15.25,-13.07,0,*4F
1497067440.61,2646,19.5,74088.8,4.63,-16.31,-13.97,0,*43
1497067441.83,2647,19.5,74094.3,4.63,-17.31,-14.65,0,*49
1497067443.05,2648,19.5,74088.3,4.63,-17.31,-14.69,0,*4A
1497067444.24,2649,19.5,74092.8,4.65,-18.17,-15.11,0,*48
1497067445.48,2650,19.5,74088.8,4.63,-18.21,-14.83,0,*49
1497067446.68,2651,19.5,74088.3,4.57,-18.25,-14.61,0,*47
1497067447.87,2652,19.5,74090.3,4.61,-18.11,-14.37,0,*45
1497067449.09,2653,19.5,74088.3,4.61,-18.11,-14.43,0,*47
1497067450.27,2654,19.5,74092.5,4.57,-17.69,-14.11,0,*42
1497067451.5,2655,19.5,74090.5,4.61,-18.07,-14.55,0,*41
1497067452.71,2656,19.5,74092.5,4.57,-17.79,-14.23,0,*40
1497067453.95,2657,19.5,74088.8,4.57,-17.55,-14.43,0,*49
1497067455.15,2658,19.5,74088.3,4.61,-18.41,-14.89,0,*4F
1497067456.37,2659,19.5,74090.5,4.57,-18.73,-14.97,0,*45
1497067457.57,2660,19.5,74088.8,4.57,-18.69,-15.71,0,*4D
1497067458.78,2661,19.5,74088.0,4.61,-19.95,-17.35,0,*49
1497067459.97,2662,19.5,74090.8,4.57,-20.39,-18.07,0,*4D
1497067461.19,2663,19.5,74088.3,4.57,-20.09,-18.31,0,*4A
1497067462.37,2664,19.5,74088.8,4.57,-20.25,-18.83,0,*4A
1497067463.57,2665,19.5,74090.8,4.57,-20.43,-19.37,0,*45
1497067464.8,2666,19.5,74090.8,4.57,-20.43,-19.61,0,*45
1497067466.06,2667,19.5,74088.8,4.55,-19.65,-19.23,0,*4E
1497067467.29,2668,19.56,74094.5,4.57,-19.23,-19.17,0,*46
1497067468.52,2669,19.5,74088.0,4.55,-18.17,-18.59,0,*48
1497067469.71,2670,19.5,74092.3,4.57,-17.49,-18.21,0,*49
1497067470.94,2671,19.5,74088.8,4.57,-17.03,-18.11,0,*45
1497067472.18,2672,19.5,74094.3,4.57,-16.27,-17.97,0,*40
1497067473.41,2673,19.5,74090.8,4.61,-15.15,-17.55,0,*48
1497067474.64,2674,19.5,74090.0,4.57,-13.83,-16.59,0,*4E
1497067475.83,2675,19.5,74088.8,4.57,-12.43,-15.71,0,*4B
1497067477.08,2676,19.5,74094.0,4.61,-11.33,-15.01,0,*4E
1497067478.27,2677,19.5,74090.5,4.61,-10.23,-14.61,0,*48
1497067479.55,2678,19.5,74088.8,4.63,-9.11,-13.97,0,*72
1497067480.79,2679,19.5,74090.0,4.63,-8.51,-14.19,0,*77
1497067481.97,2680,19.5,74090.8,4.65,-7.87,-14.19,0,*73
1497067483.22,2681,19.5,74092.5,4.63,-7.61,-14.23,0,*75
1497067484.45,2682,19.5,74094.3,4.65,-7.57,-14.43,0,*73
1497067485.66,2683,19.5,74090.0,4.65,-7.83,-14.79,0,*72
1497067486.91,2684,19.5,74090.5,4.67,-8.25,-14.79,0,*74
1497067488.15,2685,19.5,74090.5,4.67,-8.71,-14.93,0,*70
1497067489.34,2686,19.5,74092.3,4.73,-8.97,-14.65,0,*77
1497067490.54,2687,19.5,74090.8,4.73,-9.31,-14.65,0,*7B
1497067491.77,2688,19.5,74092.5,4.73,-9.37,-13.83,0,*7D
1497067492.99,2689,19.5,74094.5,4.73,-8.97,-13.37,0,*78
1497067494.18,2690,19.5,74090.0,4.73,-8.93,-13.23,0,*71
1497067495.37,2691,19.5,74088.3,4.73,-9.05,-13.11,0,*7F
1497067496.56,2692,19.5,74088.8,4.73,-8.97,-12.93,0,*7D
1497067497.78,2693,19.5,74090.8,4.75,-9.05,-13.11,0,*7B
1497067499.0,2694,19.5,74088.0,4.77,-9.27,-13.61,0,*79
1497067500.24,2695,19.5,74088.0,4.75,-9.49,-14.23,0,*73
1497067501.46,2696,19.56,74094.5,4.75,-9.89,-14.43,0,*7A
1497067502.71,2697,19.5,74090.5,4.79,-10.19,-14.55,0,*41
1497067503.94,2698,19.5,74090.5,4.77,-10.15,-14.47,0,*4F
1497067505.13,2699,19.5,74092.0,4.77,-10.01,-14.37,0,*4C
1497067506.32,2700,19.5,74090.3,4.77,-9.89,-14.23,0,*70
1497067507.53,2701,19.5,74090.3,4.75,-9.31,-13.55,0,*76
1497067508.73,2702,19.5,74090.8,4.77,-9.01,-13.07,0,*73
1497067509.95,2703,19.5,74090.3,4.77,-8.71,-12.61,0,*75
1497067511.17,2704,19.5,74090.0,4.77,-8.41,-12.11,0,*76
1497067512.41,2705,19.5,74090.0,4.77,-7.31,-10.67,0,*7C
1497067513.63,2706,19.5,74094.8,4.77,-6.59,-9.83,0,*42
1497067514.86,2707,19.5,74090.0,4.75,-6.23,-9.71,0,*41
1497067516.08,2708,19.5,74088.5,4.77,-5.81,-9.67,0,*40
1497067517.31,2709,19.5,74092.3,4.77,-5.27,-9.41,0,*49
1497067518.49,2710,19.5,74090.5,4.77,-4.65,-8.59,0,*4E
1497067519.72,2711,19.5,74094.3,4.75,-4.17,-7.91,0,*43
1497067520.94,2712,19.5,74088.8,4.77,-4.01,-7.53,0,*4B
1497067522.18,2713,19.5,74090.5,4.75,-3.83,-7.35,0,*45
1497067523.42,2714,19.5,74090.0,4.75,-3.75,-7.35,0,*4B
1497067524.64,2715,19.56,74094.5,4.75,-4.09,-7.87,0,*4F
1497067525.86,2716,19.5,74092.3,4.75,-4.69,-8.41,0,*4F
1497067527.09,2717,19.5,74090.0,4.75,-5.43,-9.11,0,*43
1497067528.31,2718,19.5,74090.8,4.75,-6.09,-10.19,0,*71
1497067529.55,2719,19.5,74092.3,4.75,-6.63,-11.41,0,*70
1497067530.79,2720,19.5,74090.0,4.75,-6.77,-11.73,0,*7E
1497067532.03,2721,19.5,74090.5,4.75,-7.05,-12.25,0,*7B
1497067533.25,2722,19.5,74088.8,4.77,-6.47,-11.07,0,*7E
1497067534.47,2723,19.5,74090.8,4.75,-5.51,-9.93,0,*4D
1497067535.66,2724,19.5,74090.0,4.73,-5.51,-10.27,0,*7B
1497067536.85,2725,19.5,74090.8,4.73,-6.01,-11.01,0,*79
1497067538.05,2726,19.5,74088.3,4.73,-7.19,-12.43,0,*77
1497067539.26,2727,19.56,74092.8,4.73,-7.69,-13.23,0,*76
1497067540.45,2728,19.5,74088.8,4.73,-8.89,-15.15,0,*7B
1497067541.69,2729,19.5,74090.0,4.73,-9.61,-16.17,0,*7C
1497067542.9,2730,19.5,74090.0,4.73,-10.53,-17.21,0,*49
1497067544.13,2731,19.5,74092.0,4.73,-11.01,-18.35,0,*44
1497067545.37,2732,19.56,74092.8,4.73,-12.07,-19.31,0,*47
1497067546.59,2733,19.56,74094.3,4.73,-11.85,-18.11,0,*4C
1497067547.78,2734,19.5,74088.3,4.73,-10.53,-15.67,0,*4D
1497067548.97,2735,19.5,74088.3,4.69,-8.93,-13.23,0,*74
1497067550.19,2736,19.5,74088.5,4.69,-7.49,-11.55,0,*7C
1497067551.41,2737,19.5,74090.3,4.69,-7.19,-11.29,0,*73
1497067552.62,2738,19.5,74088.3,4.69,-7.53,-12.11,0,*7A
1497067553.85,2739,19.5,74088.0,4.69,-7.77,-12.61,0,*7A
1497067555.07,2740,19.5,74090.3,4.69,-7.91,-12.39,0,*71
1497067556.28,2741,19.5,74088.8,4.69,-7.39,-11.41,0,*7E
1497067557.49,2742,19.5,74088.0,4.69,-7.53,-11.29,0,*7F
1497067558.73,2743,19.5,74088.0,4.67,-7.01,-10.05,0,*78
1497067559.94,2744,19.5,74090.5,4.69,-6.73,-9.53,0,*4E
1497067561.15,2745,19.5,74088.0,4.73,-6.51,-9.49,0,*4F
1497067562.38,2746,19.5,74088.3,4.73,-6.63,-9.49,0,*4D
1497067563.58,2747,19.5,74088.0,4.69,-6.55,-9.57,0,*4D
1497067564.82,2748,19.56,74092.0,4.69,-6.97,-9.83,0,*45
1497067566.03,2749,19.5,74090.5,4.69,-7.27,-9.79,0,*4B
1497067567.26,2750,19.5,74086.8,4.69,-7.27,-9.41,0,*48
1497067568.47,2751,19.56,74090.0,4.67,-7.11,-8.97,0,*48
1497067569.65,2752,19.5,74088.3,4.69,-6.59,-8.33,0,*46
1497067570.86,2753,19.56,74090.3,4.69,-6.31,-7.91,0,*4E
1497067572.1,2754,19.5,74088.3,4.69,-5.93,-7.35,0,*4C
1497067573.3,2755,19.5,74084.8,4.69,-5.55,-7.05,0,*44
1497067574.51,2756,19.5,74090.5,4.73,-5.31,-6.55,0,*4A
1497067575.72,2757,19.56,74088.5,4.73,-5.11,-6.51,0,*4D
1497067576.92,2758,19.5,74086.5,4.73,-5.11,-6.77,0,*46
1497067578.1,2759,19.5,74086.3,4.73,-5.35,-6.89,0,*40
1497067579.29,2760,19.5,74086.3,4.73,-5.35,-6.81,0,*42
1497067580.47,2761,19.5,74088.5,4.73,-5.35,-6.69,0,*45
1497067581.68,2762,19.5,74088.0,4.73,-5.31,-6.55,0,*4D
1497067582.86,2763,19.5,74086.0,4.73,-4.99,-6.35,0,*49
1497067584.06,2764,19.5,74088.5,4.73,-4.73,-6.13,0,*4E
1497067585.26,2765,19.5,74088.8,4.73,-4.65,-6.23,0,*4B
1497067586.46,2766,19.5,74086.8,4.73,-4.73,-6.39,0,*44
1497067587.7,2767,19.56,74088.0,4.73,-5.07,-6.63,0,*48
1497067588.9,2768,19.5,74088.5,4.73,-5.35,-7.05,0,*47
1497067590.11,2769,19.56,74088.8,4.73,-5.85,-7.15,0,*4C
1497067591.37,2770,19.5,74090.5,4.75,-6.23,-7.57,0,*4B
1497067592.59,2771,19.5,74086.8,4.75,-6.77,-7.87,0,*46
1497067593.82,2772,19.5,74090.3,4.75,-7.23,-7.95,0,*46
1497067595.06,2773,19.5,74086.0,4.75,-7.35,-7.87,0,*43
1497067596.27,2774,19.5,74090.5,4.77,-7.61,-7.83,0,*43
1497067597.5,2775,19.5,74090.8,4.77,-7.69,-7.69,0,*4E
1497067598.77,2776,19.56,74090.5,4.75,-7.73,-7.61,0,*4C
1497067600.01,2777,19.5,74086.8,4.77,-7.69,-7.39,0,*49
1497067601.22,2778,19.56,74090.0,4.77,-7.53,-7.43,0,*42
1497067602.43,2779,19.5,74090.3,4.77,-7.43,-7.53,0,*43
1497067603.68,2780,19.5,74090.0,4.79,-7.39,-7.27,0,*45
1497067604.87,2781,19.5,74090.5,4.77,-7.11,-7.15,0,*41
1497067606.07,2782,19.56,74088.5,4.77,-6.89,-7.11,0,*46
1497067607.25,2783,19.56,74088.0,4.77,-6.85,-6.89,0,*4B
1497067608.44,2784,19.5,74090.5,4.77,-6.73,-6.47,0,*47
1497067609.62,2785,19.56,74088.5,4.77,-6.73,-6.31,0,*47
1497067610.84,2786,19.5,74088.3,4.77,-6.59,-5.93,0,*47
1497067612.06,2787,19.56,74088.3,4.77,-6.35,-5.69,0,*49
1497067613.29,2788,19.5,74088.8,4.81,-5.77,-4.89,0,*45
1497067614.47,2789,19.5,74088.3,4.81,-5.35,-4.45,0,*42
1497067615.67,2790,19.56,74088.3,4.81,-4.77,-3.95,0,*47
1497067616.89,2791,19.5,74084.3,4.79,-4.37,-3.43,0,*4E
1497067618.14,2792,19.5,74088.8,4.87,-3.79,-2.75,0,*45
1497067619.32,2793,19.56,74090.3,4.85,-3.19,-2.19,0,*4A
1497067620.51,2794,19.5,74088.5,4.85,-2.79,-1.67,0,*40
1497067621.69,2795,19.5,74086.0,4.85,-2.39,-1.17,0,*42
1497067622.91,2796,19.5,74086.0,4.87,-2.19,-0.93,0,*7C
1497067624.11,2797,19.5,74086.8,4.87,-1.79,-0.65,0,*71
1497067625.31,2798,19.5,74086.0,4.87,-1.63,-0.53,0,*70
1497067626.51,2799,19.5,74084.8,4.89,-1.35,-0.33,0,*7A
1497067627.7,2800,19.5,74086.8,4.89,-1.21,-0.15,0,*74
1497067628.9,2801,19.5,74088.0,4.91,-1.25,-0.19,0,*74
1497067630.11,2802,19.5,74084.5,4.91,-1.17,-0.11,0,*7E
1497067631.35,2803,19.5,74084.3,4.93,-1.09,-0.11,0,*72
1497067632.55,2804,19.5,74088.5,4.95,-0.89,0.09,0,*5E
1497067633.78,2805,19.5,74088.8,4.93,-0.97,0.05,0,*5A
1497067634.97,2806,19.5,74086.3,4.95,-0.89,0.09,0,*5C
1497067636.18,2807,19.5,74086.8,4.95,-0.81,0.21,0,*6F
1497067637.39,2808,19.5,74084.8,4.97,-0.69,0.41,0,*62
1497067638.59,2809,19.5,74086.3,4.99,-0.65,0.47,0,*67
1497067639.79,2810,19.56,74090.3,4.99,-0.61,0.51,0,*6C
1497067640.98,2811,19.5,74084.0,4.99,-0.61,0.59,0,*65
1497067642.17,2812,19.5,74086.8,4.99,-0.49,0.63,0,*65
1497067643.36,2813,19.56,74088.3,5.03,-0.37,0.79,0,*64
1497067644.56,2814,19.5,74086.5,5.03,-0.33,0.91,0,*61
1497067645.76,2815,19.5,74084.8,5.03,-0.33,0.91,0,*60
1497067646.98,2816,19.5,74086.5,5.03,-0.23,1.13,0,*59
1497067648.19,2817,19.5,74084.8,5.09,-0.15,1.25,0,*52
1497067649.41,2818,19.5,74084.8,5.09,-0.03,1.33,0,*6D
1497067650.59,2819,19.56,74086.3,5.09,0.09,1.41,0,*4E
1497067651.78,2820,19.5,74086.5,5.11,-0.03,1.37,0,*6B
1497067652.97,2821,19.5,74086.5,5.11,-0.03,1.29,0,*65
1497067654.18,2822,19.5,74086.3,5.11,0.13,1.55,0,*71
1497067655.4,2823,19.5,74084.5,5.13,0.29,1.59,0,*77
1497067656.63,2824,19.5,74086.5,5.13,0.37,1.71,0,*75
1497067657.81,2825,19.5,74086.3,5.15,0.37,1.75,0,*76
1497067659.01,2826,19.5,74084.5,5.15,0.47,1.83,0,*7B
1497067660.25,2827,19.5,74086.5,5.17,0.51,1.85,0,*79
1497067661.46,2828,19.5,74084.5,5.17,0.43,1.85,0,*75
1497067662.68,2829,19.5,74086.0,5.21,0.47,1.89,0,*79
1497067663.91,2830,19.5,74084.5,5.21,0.47,1.93,0,*7A
1497067665.15,2831,19.5,74086.0,5.21,0.55,2.01,0,*70
1497067666.36,2832,19.5,74086.8,5.23,0.55,2.01,0,*71
1497067667.58,2833,19.5,74086.3,5.23,0.71,2.17,0,*71
1497067668.79,2834,19.5,74086.3,5.25,0.63,2.09,0,*7C
1497067670.0,2835,19.5,74084.3,5.29,0.75,2.21,0,*7C
1497067671.21,2836,19.5,74086.0,5.31,0.83,2.35,0,*7A
1497067672.43,2837,19.5,74084.3,5.31,0.91,2.35,0,*78
1497067673.63,2838,19.5,74084.5,5.31,1.01,2.35,0,*4F
1497067674.86,2839,19.5,74086.0,5.35,1.05,2.39,0,*42
1497067676.08,2840,19.56,74086.0,5.35,1.09,2.27,0,*4F
1497067677.31,2841,19.5,74082.8,5.35,1.17,2.27,0,*41
1497067678.57,2842,19.56,74084.5,5.35,1.17,2.39,0,*4D
1497067679.79,2843,19.5,74084.3,5.41,1.13,2.25,0,*46
1497067681.01,2844,19.5,74084.3,5.41,1.25,2.25,0,*44
1497067682.24,2845,19.5,74082.8,5.41,1.13,2.25,0,*40
1497067683.47,2846,19.5,74084.3,5.41,1.13,2.13,0,*46
1497067684.68,2847,19.5,74086.5,5.41,0.87,1.97,0,*74
1497067685.9,2848,19.5,74084.3,5.41,0.87,1.97,0,*7B
1497067687.14,2849,19.56,74084.3,5.43,0.91,1.89,0,*70
1497067688.37,2850,19.56,74084.5,5.43,0.83,1.93,0,*70
1497067689.61,2851,19.5,74084.5,5.43,0.83,1.93,0,*71
1497067690.84,2852,19.5,74082.5,5.43,0.79,1.89,0,*7C
1497067692.05,2853,19.5,74084.0,5.45,0.75,1.93,0,*7C
1497067693.23,2854,19.5,74086.0,5.45,0.63,1.83,0,*7D
1497067694.41,2855,19.56,74084.3,5.49,0.59,1.75,0,*70
1497067695.62,2856,19.56,74084.5,5.49,0.47,1.71,0,*78
1497067696.82,2857,19.5,74084.0,5.49,0.47,1.67,0,*7E
1497067698.02,2858,19.5,74084.0,5.49,0.29,1.47,0,*7B
1497067699.22,2859,19.5,74084.5,5.53,0.33,1.51,0,*7D
1497067700.45,2860,19.56,74086.5,5.51,0.33,1.47,0,*72
1497067701.63,2861,19.56,74084.0,5.53,0.09,1.29,0,*40
1497067702.82,2862,19.5,74086.0,5.53,-0.37,0.91,0,*61
1497067704.02,2863,19.5,74084.3,5.51,-0.61,0.67,0,*68
1497067705.22,2864,19.56,74086.0,5.53,-1.01,0.43,0,*5C
1497067706.4,2865,19.5,74082.0,5.57,-1.51,0.01,0,*6A
1497067707.6,2866,19.56,74088.5,5.57,-1.71,0.01,0,*6B
1497067708.82,2867,19.5,74086.3,5.57,-2.23,-0.27,0,*77
1497067710.02,2868,19.5,74086.0,5.57,-2.83,-0.77,0,*77
1497067711.28,2869,19.5,74086.8,5.57,-3.51,-1.01,0,*48
1497067712.51,2870,19.56,74088.3,5.57,-4.01,-1.25,0,*44
1497067713.7,2871,19.56,74088.3,5.59,-4.57,-1.63,0,*4A
1497067714.9,2872,19.5,74084.0,5.59,-4.77,-1.75,0,*4C
1497067716.13,2873,19.5,74086.3,5.59,-4.89,-1.99,0,*4E
1497067717.34,2874,19.5,74080.5,5.59,-5.07,-2.27,0,*48
1497067718.53,2875,19.5,74084.5,5.59,-4.93,-2.27,0,*45
1497067719.74,2876,19.56,74086.3,5.59,-4.77,-2.23,0,*48
1497067720.91,2877,19.56,74090.0,5.59,-4.53,-2.15,0,*4A
1497067722.13,2878,19.56,74088.0,5.59,-4.29,-1.99,0,*4F
1497067723.36,2879,19.56,74084.5,5.61,-4.13,-2.03,0,*4C
1497067724.56,2880,19.5,74086.3,5.63,-4.13,-2.03,0,*48
1497067725.76,2881,19.5,74086.3,5.61,-4.49,-2.23,0,*46